Location: Unspecified
(0.0000°N, 0.0000°E)
Time: 11:32:38
(UTC+00:00)

A-11 Canister half - Pass Details

Date: 27 November 2019
Orbit: 1526 x 1683 km, 47.3° (Epoch: 07 December)

Event Time Altitude Azimuth Distance (km) Brightness Sun altitude
Rises 18:10:31 0° 322° (NW) 4,730 11.8 -5.3°
Reaches altitude 10° 18:13:36 10° 323° (NW) 3,730 11.2 -6.1°
Maximum altitude 18:23:00 83° 51° (NE) 1,542 9.0 -8.2°
Drops below altitude 10° 18:32:19 10° 138° (SE) 3,692 10.8 -10.4°
Sets 18:35:21 0° 138° (SE) 4,679 11.3 -11.1°
